Voltar ao catálogo

FREGAT DEB

AtivoUNKNOWN
NORAD 45823·DEBRIS·🇷🇺 Russia

Lançado Jul 18, 2011 de Baikonur Cosmodrome

Loading…

Próximas Passagens (próximas 24 horas)

TLE

AtualizadoSource: Space-Track

Época: Sep 14, 2026, 02:41 UTC

1 45823U 11037BH  26257.11246211  .00000594  00000-0  15014-3 0  9996
2 45823  51.4374 289.6565 1873690 144.7696 229.2811 11.33538250259057

Acompanhe FREGAT DEB em tempo real com AllMySat

Download on the App Store